Meadville, PA

8:28 AM EST on December 06, 2019 (GMT -0500)
Port Meadville

Weather History for KGKJ - October, 2019

Change the Weather History Date:

Monday, October 14, 2019

  Actual Average Record
Temperature  
Mean Temperature 48 °F -  
Max Temperature 54 °F 63 °F 83 °F (1969)
Min Temperature 37 °F 39 °F 26 °F (1957)
Degree Days  
Heating Degree Days 17    
Moisture  
Dew Point 37 °F    
Average Humidity 68    
Maximum Humidity 86    
Minimum Humidity 53    
Precipitation  
Precipitation 0.00 in - - ()
Sea Level Pressure  
Sea Level Pressure 30.01 in    
Wind  
Wind Speed 6 mph ()    
Max Wind Speed 18 mph    
Max Gust Speed 25 mph    
Visibility 10.0 miles    
Events      
Averages and records for this station are not official NWS values.
T = Trace of Precipitation, MM = Missing Value Source: Averaged Metar Reports

Daily Weather History Graph

Daily Weather History Graph

Search for Another Location

Airport or City:

Astronomy

Oct. 14, 2019 Rise Set
Actual Time 7:31 AM EDT 6:41 PM EDT
Civil Twilight 7:03 AM EDT 7:09 PM EDT
Nautical Twilight 6:31 AM EDT 7:41 PM EDT
Astronomical Twilight 5:59 AM EDT 8:13 PM EDT
Moon 7:30 PM EDT (10/14) 8:01 AM EDT (10/14)
Length of Visible Light 12h 05m
Length of Day
11h 09m
Waxing Gibbous, 99% of the Moon is Illuminated
Oct 14
Waxing Gibbous
Oct 21
Last Quarter
Oct 27
New
Nov 4
First Quarter
Nov 12
Full

Hourly Weather History & Observations

Time (EDT) Temp. Windchill Dew Point Humidity Pressure Visibility Wind Dir Wind Speed Gust Speed Precip Events Conditions
12:53 AM 52.0 °F - 35.1 °F 53% 29.89 in 10.0 mi SSW 6.9 mph - N/A   Clear
1:53 AM 50.0 °F - 36.0 °F 59% 29.89 in 10.0 mi South 6.9 mph - N/A   Clear
2:53 AM 50.0 °F - 37.0 °F 61% 29.88 in 10.0 mi South 5.8 mph - N/A   Clear
3:53 AM 48.9 °F - 37.0 °F 64% 29.88 in 10.0 mi SSW 5.8 mph - N/A   Scattered Clouds
4:53 AM 48.0 °F - 37.0 °F 66% 29.90 in 10.0 mi SSW 5.8 mph - N/A   Clear
5:53 AM 45.0 °F 41.8 °F 37.0 °F 74% 29.92 in 10.0 mi SSW 5.8 mph - N/A   Clear
6:53 AM 44.1 °F 42.5 °F 39.0 °F 82% 29.95 in 10.0 mi West 3.5 mph - N/A   Partly Cloudy
7:53 AM 44.1 °F 41.5 °F 39.9 °F 85% 29.97 in 10.0 mi WSW 4.6 mph - N/A   Scattered Clouds
8:53 AM 46.0 °F 43.1 °F 41.0 °F 83% 29.99 in 10.0 mi WSW 5.8 mph - N/A   Clear
9:53 AM 50.0 °F - 42.1 °F 74% 30.00 in 10.0 mi WSW 8.1 mph - N/A   Partly Cloudy
11:53 AM 54.0 °F - 37.0 °F 53% 30.01 in 10.0 mi WSW 18.4 mph 25.3 mph N/A   Mostly Cloudy
12:53 PM 51.1 °F - 37.0 °F 59% 30.03 in 10.0 mi WNW 10.4 mph - N/A   Mostly Cloudy
1:53 PM 52.0 °F - 37.0 °F 57% 30.02 in 10.0 mi West 12.7 mph 20.7 mph N/A   Overcast
2:53 PM 51.1 °F - 37.9 °F 61% 30.02 in 10.0 mi NW 9.2 mph - N/A   Overcast
3:53 PM 52.0 °F - 37.0 °F 57% 30.04 in 10.0 mi West 11.5 mph 18.4 mph N/A   Overcast
4:53 PM 51.1 °F - 37.0 °F 59% 30.05 in 10.0 mi NW 11.5 mph - N/A   Overcast
5:53 PM 50.0 °F - 35.1 °F 57% 30.06 in 10.0 mi WNW 4.6 mph - N/A   Scattered Clouds
6:53 PM 46.0 °F 44.8 °F 35.1 °F 66% 30.09 in 10.0 mi WNW 3.5 mph - N/A   Clear
7:53 PM 44.1 °F - 35.1 °F 71% 30.11 in 10.0 mi Calm Calm - N/A   Clear
8:53 PM 43.0 °F 41.3 °F 35.1 °F 74% 30.11 in 10.0 mi West 3.5 mph - N/A   Clear
9:53 PM 43.0 °F 41.3 °F 36.0 °F 76% 30.12 in 10.0 mi SW 3.5 mph - N/A   Clear
10:53 PM 42.1 °F 40.2 °F 36.0 °F 79% 30.13 in 10.0 mi SSW 3.5 mph - N/A   Clear
11:53 PM 37.9 °F - 34.0 °F 86% 30.13 in 10.0 mi Calm Calm - N/A   Clear